Home > Weather > Nuuk > Past weeks

Flag for Greenland Weather for the Past 2 Weeks in Nuuk, Greenland

Now
25 °F

Overcast.


Feels Like: 13 °F
Forecast: 22 / 29 °F
Wind: 13 mph from Northeast

Location: Godthaab / Nuuk

Current Time: Feb 12, 2016 at 1:47:00 PM

Latest Report: Feb 12, 2016 at 12:50 PM


Visibility: N/A

Pressure: 29.42 "Hg

Humidity: 69%

Dew point: 16 °F

Location of NuukLocation

Historic Weather in Nuuk — Graph

°F

Nuuk Temperature Yesterday

Maximum temperature yesterday: 21 °F (at 8:50 PM)
Minimum temperature yesterday: 9 °F (at 12:50 AM)
Average temperature yesterday: 15 °F

High & Low Weather Summary for the Past Weeks

 TemperatureHumidityPressure
High36 °F (Feb 3, 1:50 PM)100% (Jan 28, 11:50 PM)30.04 "Hg (Jan 28, 11:50 PM)
Low7 °F (Jan 28, 12:50 PM)40% (Feb 3, 9:50 PM)28.85 "Hg (Jan 28, 12:50 PM)
Average17 °F75%29.53 "Hg
* Reported Jan 28 11:50 AM — Feb 12 11:50 AM, Nuuk, Weather by CustomWeather, © 2016

Note: Actual official high and low records may vary slightly from our data, if they occured in-between our weather recording intervals... More about our weather records

Advertising

Nuuk Weather History for the Previous 24 Hours

 ConditionsComfort  
Time TempWeatherWind HumidityBarometerVisibility
11:50 AM
Fri, Feb 12
25 °FOvercast.14 mph69%29.42 "HgN/A
10:50 AM27 °FOvercast.9 mph50%29.42 "HgN/A
9:50 AM25 °FOvercast.12 mph59%29.39 "HgN/A
8:50 AM25 °FOvercast.10 mph50%29.42 "HgN/A
7:50 AM25 °FOvercast.13 mph46%29.42 "HgN/A
6:50 AM23 °FPassing clouds.15 mph68%29.42 "HgN/A
5:50 AM25 °FPassing clouds.9 mph46%29.42 "HgN/A
4:50 AM23 °FPassing clouds.9 mph54%29.42 "HgN/A
3:50 AM23 °FOvercast.6 mph54%29.45 "HgN/A
2:50 AM23 °FOvercast.12 mph46%29.45 "HgN/A
1:50 AM23 °FPassing clouds.12 mph46%29.45 "HgN/A
12:50 AM21 °FCold.14 mph49%29.47 "HgN/A
11:50 PM
Thu, Feb 11
21 °FCold.10 mph49%29.47 "HgN/A
10:50 PM21 °FPassing clouds.14 mph45%29.47 "HgN/A
9:50 PM21 °FCold.13 mph45%29.50 "HgN/A
8:50 PM21 °FPartly cloudy.2 mph49%29.50 "HgN/A
7:50 PM18 °FPartly cloudy.3 mph73%29.50 "HgN/A
6:50 PM18 °FPartly cloudy.2 mph73%29.50 "HgN/A
5:50 PM19 °FPartly cloudy.3 mph68%29.50 "HgN/A
4:50 PM16 °FPartly cloudy.5 mph79%29.50 "HgN/A
3:50 PM18 °FBroken clouds.2 mph73%29.50 "HgN/A
2:50 PM19 °FPartly sunny.1 mph63%29.50 "HgN/A
1:50 PM19 °FPartly sunny.10 mph63%29.50 "HgN/A
Weather by CustomWeather, © 2016

See weather overviewHow to use our weather pages